DW5425 Weather Reports


time (UTC)temp
C
wind
direction
speed
KPH
gust
KPH
rain 1hr
cm
rain 24hr
cm
rain mn
cm
humidity
%
barometer
mb
20260505153003 25 247 11.3 29.0 0.00 0.00 0.00 42 1008.4
20260505152003 25 242 12.9 27.4 0.00 0.00 0.00 43 1008.6
20260505125004 18 216 1.6 3.2 0.00 0.00 0.00 64 1009.8
20260505124003 18 137 0.0 1.6 0.00 0.00 0.00 66 1009.8
20260505123504 17 137 0.0 3.2 0.00 0.00 0.00 67 1009.9
20260505123004 17 126 3.2 4.8 0.00 0.00 0.00 66 1009.9
20260505122004 17 153 0.0 3.2 0.00 0.00 0.00 68 1010.0
20260505121504 17 153 1.6 4.8 0.00 0.00 0.00 68 1009.9
20260505115004 16 136 1.6 4.8 0.00 0.00 0.00 71 1009.8
20260505114504 15 161 0.0 3.2 0.00 0.00 0.00 71 1009.7
20260505113003 15 143 0.0 0.0 0.00 0.00 0.00 73 1009.5
20260505112004 15 147 0.0 3.2 0.00 0.00 0.00 74 1009.4
20260505111504 14 161 0.0 0.0 0.00 0.00 0.00 75 1009.5
20260505111003 13 161 0.0 1.6 0.00 0.00 0.00 76 1009.5
20260505110504 13 161 0.0 3.2 0.00 0.00 0.00 76 1009.3
20260505095504 12 152 0.0 1.6 0.00 0.00 0.00 76 1009.0
20260505094503 12 152 0.0 1.6 0.00 0.00 0.00 76 1008.8
20260505094004 12 152 1.6 1.6 0.00 0.00 0.00 75 1008.8
20260505093504 13 152 0.0 0.0 0.00 0.00 0.00 75 1008.7
20260505091004 13 152 0.0 0.0 0.00 0.00 0.00 73 1008.6
20260505090004 14 152 0.0 0.0 0.00 0.00 0.00 72 1008.7
20260505085005 14 152 0.0 0.0 0.00 0.00 0.00 72 1008.6
20260505084504 14 152 0.0 0.0 0.00 0.00 0.00 72 1008.6
20260505083503 13 152 0.0 1.6 0.00 0.00 0.00 73 1008.4
20260505082504 13 152 0.0 0.0 0.00 0.00 0.00 73 1008.6
20260505081004 14 152 0.0 0.0 0.00 0.00 0.00 72 1008.5
20260505080503 14 152 0.0 0.0 0.00 0.00 0.00 72 1008.4
20260505080004 14 152 0.0 0.0 0.00 0.00 0.00 71 1008.4
20260505075504 14 152 0.0 0.0 0.00 0.00 0.00 71 1008.4
20260505074504 15 152 0.0 1.6 0.00 0.00 0.00 71 1008.3
20260505074004 15 152 0.0 0.0 0.00 0.00 0.00 70 1008.3
20260505073503 15 152 0.0 0.0 0.00 0.00 0.00 70 1008.2
20260505070503 15 152 0.0 0.0 0.00 0.00 0.00 68 1008.1
20260505064503 16 152 0.0 3.2 0.00 0.00 0.00 67 1008.3
20260505064003 16 152 0.0 1.6 0.00 0.00 0.00 66 1008.4
20260505062005 16 152 0.0 0.0 0.00 0.00 0.00 65 1008.4
20260505061504 16 152 0.0 0.0 0.00 0.00 0.00 64 1008.4
20260505061003 16 152 0.0 1.6 0.00 0.00 0.00 64 1008.5
20260505060503 16 152 0.0 1.6 0.00 0.00 0.00 64 1008.5
20260505055004 17 152 1.6 3.2 0.00 0.00 0.00 64 1008.6
20260505054004 17 152 0.0 1.6 0.00 0.00 0.00 64 1008.5
20260505052503 17 152 0.0 1.6 0.00 0.00 0.00 63 1008.5
20260505051504 17 152 0.0 1.6 0.00 0.00 0.00 63 1008.5
20260505051005 17 152 0.0 1.6 0.00 0.00 0.00 63 1008.5
20260505050503 17 152 0.0 0.0 0.00 0.00 0.00 62 1008.4
20260505041003 17 142 3.2 4.8 0.00 0.00 0.00 60 1008.1
20260505035004 16 140 0.0 1.6 0.00 0.00 0.00 60 1008.0
20260505034003 17 140 0.0 4.8 0.00 0.00 0.00 59 1008.1
20260505033503 17 140 0.0 1.6 0.00 0.00 0.00 58 1008.1
20260505032504 17 140 0.0 0.0 0.00 0.00 0.00 58 1008.2
20260505030004 18 140 0.0 1.6 0.00 0.00 0.00 55 1008.1
20260505025004 18 140 0.0 1.6 0.00 0.00 0.00 54 1008.1
20260505024504 18 140 0.0 0.0 0.00 0.00 0.00 53 1008.1
20260505024004 18 140 0.0 1.6 0.00 0.00 0.00 53 1008.0
20260505023004 18 140 1.6 3.2 0.00 0.00 0.00 53 1007.9
20260505022504 18 143 1.6 4.8 0.00 0.00 0.00 52 1007.8
20260505022004 18 146 0.0 4.8 0.00 0.00 0.00 52 1007.9
20260505014004 19 152 3.2 4.8 0.00 0.00 0.00 50 1007.7
20260505013504 19 161 1.6 4.8 0.00 0.00 0.00 50 1007.7
20260505012504 19 146 3.2 4.8 0.00 0.00 0.00 49 1007.5
20260505012004 20 143 3.2 4.8 0.00 0.00 0.00 49 1007.5
20260505011003 20 151 3.2 4.8 0.00 0.00 0.00 48 1007.7
20260505010504 20 154 1.6 4.8 0.00 0.00 0.00 48 1007.7
20260505005504 20 156 3.2 4.8 0.00 0.00 0.00 48 1007.5
20260505004004 20 161 1.6 4.8 0.00 0.00 0.00 48 1007.3
20260505003504 20 168 3.2 8.0 0.00 0.00 0.00 47 1007.3
20260505002503 20 154 1.6 4.8 0.00 0.00 0.00 47 1007.2
20260505002004 21 156 1.6 8.0 0.00 0.00 0.00 46 1007.2
20260505001004 21 155 1.6 9.7 0.00 0.00 0.00 45 1007.1
20260505000004 21 153 3.2 9.7 0.00 0.00 0.00 44 1007.1
20260504235503 21 155 4.8 11.3 0.00 0.00 0.00 44 1007.0
20260504235004 21 158 3.2 9.7 0.00 0.00 0.00 43 1007.0
20260504234504 21 160 8.0 12.9 0.00 0.00 0.00 43 1007.0
20260504234004 21 143 4.8 12.9 0.00 0.00 0.00 43 1007.0
20260504233003 22 143 8.0 11.3 0.00 0.00 0.00 42 1006.9
20260504232504 22 154 6.4 19.3 0.00 0.00 0.00 42 1006.9
20260504232005 22 153 3.2 14.5 0.00 0.00 0.00 43 1006.9
20260504231504 22 162 4.8 14.5 0.00 0.00 0.00 42 1006.9
20260504230503 22 157 6.4 12.9 0.00 0.00 0.00 42 1007.0
20260504230004 22 165 3.2 8.0 0.00 0.00 0.00 43 1007.0
20260504225504 22 155 3.2 14.5 0.00 0.00 0.00 42 1007.1
20260504224504 22 153 3.2 16.1 0.00 0.00 0.00 42 1007.1
20260504221503 22 148 4.8 16.1 0.00 0.00 0.00 41 1007.3
20260504220504 22 155 9.7 19.3 0.00 0.00 0.00 40 1007.3
20260504215004 23 155 12.9 22.5 0.00 0.00 0.00 40 1007.3
20260504214504 23 159 6.4 14.5 0.00 0.00 0.00 40 1007.3
20260504213003 23 161 6.4 25.7 0.00 0.00 0.00 40 1007.1
20260504210504 23 145 6.4 19.3 0.00 0.00 0.00 40 1007.2
20260504204504 24 172 3.2 11.3 0.00 0.00 0.00 37 1007.1
20260504204004 24 164 4.8 16.1 0.00 0.00 0.00 37 1007.2
20260504202004 25 163 3.2 8.0 0.00 0.00 0.00 34 1007.5
20260504201504 25 156 3.2 12.9 0.00 0.00 0.00 34 1007.6
20260504201003 24 234 3.2 4.8 0.00 0.00 0.00 36 1007.6
20260504200004 24 239 1.6 11.3 0.00 0.00 0.00 36 1007.9
20260504195503 24 150 3.2 8.0 0.00 0.00 0.00 36 1007.9
20260504194503 23 151 8.0 19.3 0.00 0.00 0.00 36 1008.0
20260504194004 23 163 3.2 9.7 0.00 0.00 0.00 37 1008.1
20260504192503 24 146 1.6 9.7 0.00 0.00 0.00 37 1008.5
20260504192004 24 222 1.6 8.0 0.00 0.00 0.00 37 1008.5
20260504191503 23 188 6.4 19.3 0.00 0.00 0.00 35 1008.7
20260504190504 23 151 4.8 12.9 0.00 0.00 0.00 36 1008.7
20260504190004 23 243 8.0 14.5 0.00 0.00 0.00 35 1008.7
20260504185504 23 197 3.2 16.1 0.00 0.00 0.00 39 1008.9
20260504185004 23 157 3.2 9.7 0.00 0.00 0.00 38 1009.0
20260504183504 23 198 3.2 14.5 0.00 0.00 0.00 40 1009.2
20260504183004 23 166 6.4 11.3 0.00 0.00 0.00 38 1009.2
20260504180504 23 117 1.6 8.0 0.00 0.00 0.00 37 1009.6
20260504180003 23 190 1.6 4.8 0.00 0.00 0.00 42 1009.8
20260504175004 22 166 3.2 9.7 0.00 0.00 0.00 39 1009.8
20260504174004 22 175 3.2 14.5 0.00 0.00 0.00 44 1010.0
20260504173003 21 117 1.6 20.9 0.00 0.00 0.00 43 1010.0
20260504171504 20 151 4.8 14.5 0.00 0.00 0.00 42 1010.3
20260504170503 20 148 11.3 24.1 0.00 0.00 0.00 42 1010.3